When you browse on this site, cookies collect data to enhance your experience and personalize the content and advertising you see.
Visit our Privacy Policy to learn more. By continuing to use the site, you agree to this use of cookies and data.
  • In Portugal
  • List of Countries
  • For 7 days
  • Water Temperature
  • Weather Map
  • Weather Widgets
  • user-avatar
    Login

    Hourly Weather Pulkowka

    Today, 19 September, Thursday

    Time Temperature Precipitation Wind Pressure Humidity
    00:00 +5°C° 0.1 mm 2 mps 722 mmHg 85%
    01:00 +5°C° 0.1 mm 2 mps 722 mmHg 90%
    02:00 +5°C° 0.1 mm 2 mps 722 mmHg 91%
    03:00 +4°C° 0.1 mm 2 mps 722 mmHg 92%
    04:00 +4°C° 0.1 mm 2 mps 722 mmHg 93%
    05:00 +5°C° 0 mm 2 mps 722 mmHg 91%
    06:00 +5°C° 0 mm 2 mps 722 mmHg 88%
    07:00 +6°C° 0 mm 2 mps 722 mmHg 86%
    08:00 +7°C° 0.1 mm 2 mps 723 mmHg 80%
    09:00 +8°C° 0.1 mm 3 mps 723 mmHg 74%
    10:00 +10°C° 0.1 mm 3 mps 723 mmHg 67%
    11:00 +10°C° 0.2 mm 4 mps 723 mmHg 65%
    12:00 +11°C° 0.2 mm 4 mps 723 mmHg 63%
    13:00 +11°C° 0.2 mm 4 mps 723 mmHg 61%
    14:00 +11°C° 0.1 mm 4 mps 723 mmHg 62%
    15:00 +11°C° 0.1 mm 4 mps 723 mmHg 64%
    16:00 +10°C° 0.1 mm 4 mps 723 mmHg 65%
    17:00 +9°C° 0.3 mm 3 mps 723 mmHg 73%
    18:00 +7°C° 0.3 mm 3 mps 723 mmHg 82%
    19:00 +6°C° 0.3 mm 2 mps 723 mmHg 91%
    20:00 +5°C° 0.3 mm 2 mps 723 mmHg 91%
    21:00 +5°C° 0.3 mm 2 mps 723 mmHg 92%
    22:00 +5°C° 0.3 mm 2 mps 724 mmHg 93%
    23:00 +4°C° 0 mm 2 mps 724 mmHg 93%

    Tomorrow, 20 September, Friday

    Time Temperature Precipitation Wind Pressure Humidity
    00:00 +4°C° 0 mm 2 mps 724 mmHg 93%
    01:00 +4°C° 0 mm 2 mps 724 mmHg 93%
    02:00 +4°C° 0 mm 2 mps 724 mmHg 93%
    03:00 +3°C° 0 mm 2 mps 724 mmHg 94%
    04:00 +3°C° 0 mm 2 mps 724 mmHg 94%
    05:00 +4°C° 0 mm 2 mps 724 mmHg 93%
    06:00 +4°C° 0 mm 2 mps 724 mmHg 91%
    07:00 +6°C° 0 mm 1 mps 724 mmHg 90%
    08:00 +7°C° 0 mm 2 mps 725 mmHg 82%
    09:00 +8°C° 0 mm 2 mps 725 mmHg 74%
    10:00 +10°C° 0 mm 2 mps 726 mmHg 66%
    11:00 +10°C° 0.1 mm 3 mps 725 mmHg 62%
    12:00 +11°C° 0.1 mm 3 mps 725 mmHg 58%
    13:00 +12°C° 0.1 mm 3 mps 725 mmHg 55%
    14:00 +12°C° 0 mm 3 mps 724 mmHg 57%
    15:00 +12°C° 0 mm 2 mps 724 mmHg 59%
    16:00 +12°C° 0 mm 2 mps 724 mmHg 60%
    17:00 +9°C° 0 mm 2 mps 724 mmHg 68%
    18:00 +9°C° 0 mm 1 mps 724 mmHg 75%
    19:00 +7°C° 0 mm 1 mps 724 mmHg 82%
    20:00 +7°C° 0 mm 1 mps 724 mmHg 82%
    21:00 +6°C° 0 mm 1 mps 724 mmHg 83%
    22:00 +6°C° 0 mm 1 mps 724 mmHg 84%
    23:00 +6°C° 0 mm 1 mps 724 mmHg 84%

    Day after tomorrow, 21 September, Saturday

    Time Temperature Precipitation Wind Pressure Humidity
    00:00 +5°C° 0 mm 1 mps 724 mmHg 85%
    01:00 +5°C° 0 mm 1 mps 724 mmHg 86%
    02:00 +5°C° 0 mm 1 mps 724 mmHg 85%
    03:00 +5°C° 0 mm 1 mps 724 mmHg 85%
    04:00 +5°C° 0 mm 1 mps 724 mmHg 85%
    05:00 +6°C° 0 mm 1 mps 724 mmHg 81%
    06:00 +7°C° 0 mm 1 mps 724 mmHg 77%
    07:00 +7°C° 0 mm 1 mps 724 mmHg 73%
    08:00 +10°C° 0 mm 1 mps 724 mmHg 65%
    09:00 +12°C° 0 mm 1 mps 724 mmHg 57%
    10:00 +15°C° 0 mm 1 mps 725 mmHg 49%
    11:00 +16°C° 0 mm 1 mps 724 mmHg 47%
    12:00 +18°C° 0 mm 1 mps 724 mmHg 45%
    13:00 +17°C° 0 mm 2 mps 724 mmHg 43%
    14:00 +18°C° 0 mm 1 mps 724 mmHg 47%
    15:00 +18°C° 0 mm 1 mps 723 mmHg 52%
    16:00 +16°C° 0 mm 1 mps 723 mmHg 56%
    17:00 +14°C° 0 mm 1 mps 723 mmHg 62%
    18:00 +12°C° 0 mm 1 mps 722 mmHg 69%
    19:00 +10°C° 0 mm 1 mps 722 mmHg 75%
    20:00 +9°C° 0 mm 1 mps 722 mmHg 76%
    21:00 +9°C° 0 mm 1 mps 722 mmHg 77%
    22:00 +9°C° 0 mm 1 mps 722 mmHg 79%
    23:00 +8°C° 0 mm 1 mps 722 mmHg 79%

    22 September, Sunday

    Time Temperature Precipitation Wind Pressure Humidity
    00:00 +8°C° 0 mm 1 mps 722 mmHg 79%
    01:00 +8°C° 0 mm 1 mps 721 mmHg 79%
    02:00 +8°C° 0 mm 1 mps 721 mmHg 79%
    03:00 +7°C° 0 mm 1 mps 721 mmHg 78%
    04:00 +7°C° 0 mm 1 mps 721 mmHg 78%
    05:00 +8°C° 0 mm 1 mps 721 mmHg 75%
    06:00 +9°C° 0 mm 1 mps 721 mmHg 72%
    07:00 +10°C° 0 mm 1 mps 721 mmHg 69%
    08:00 +12°C° 0 mm 1 mps 721 mmHg 62%
    09:00 +15°C° 0 mm 1 mps 721 mmHg 54%
    10:00 +18°C° 0 mm 1 mps 721 mmHg 46%
    11:00 +19°C° 0 mm 1 mps 720 mmHg 45%
    12:00 +21°C° 0 mm 1 mps 720 mmHg 43%
    13:00 +22°C° 0 mm 1 mps 720 mmHg 41%
    14:00 +21°C° 0 mm 1 mps 719 mmHg 46%
    15:00 +21°C° 0 mm 1 mps 719 mmHg 51%
    16:00 +20°C° 0 mm 1 mps 718 mmHg 55%
    17:00 +18°C° 0 mm 1 mps 718 mmHg 59%
    18:00 +15°C° 0 mm 1 mps 717 mmHg 63%
    19:00 +13°C° 0 mm 1 mps 717 mmHg 67%
    20:00 +13°C° 0 mm 1 mps 716 mmHg 64%
    21:00 +13°C° 0 mm 1 mps 716 mmHg 62%
    22:00 +13°C° 0 mm 1 mps 716 mmHg 60%
    23:00 +13°C° 0 mm 1 mps 716 mmHg 58%

    23 September, Monday

    Time Temperature Precipitation Wind Pressure Humidity
    00:00 +13°C° 0 mm 2 mps 715 mmHg 56%
    01:00 +14°C° 0 mm 2 mps 715 mmHg 54%
    02:00 +13°C° 0 mm 2 mps 714 mmHg 55%
    03:00 +13°C° 0 mm 2 mps 714 mmHg 56%
    04:00 +12°C° 0 mm 2 mps 714 mmHg 57%
    05:00 +12°C° 0 mm 1 mps 713 mmHg 58%
    06:00 +13°C° 0 mm 1 mps 713 mmHg 60%
    07:00 +13°C° 0 mm 1 mps 713 mmHg 62%
    08:00 +15°C° 0 mm 1 mps 713 mmHg 58%
    09:00 +18°C° 0 mm 1 mps 713 mmHg 54%
    10:00 +21°C° 0 mm 1 mps 714 mmHg 51%
    11:00 +20°C° 0 mm 2 mps 713 mmHg 52%
    12:00 +20°C° 0 mm 2 mps 713 mmHg 53%
    13:00 +21°C° 0 mm 3 mps 713 mmHg 54%
    14:00 +20°C° 0 mm 3 mps 713 mmHg 60%
    15:00 +18°C° 0 mm 3 mps 713 mmHg 66%
    16:00 +17°C° 0 mm 3 mps 713 mmHg 72%
    17:00 +16°C° 0 mm 2 mps 713 mmHg 74%
    18:00 +16°C° 0 mm 2 mps 713 mmHg 77%
    19:00 +15°C° 0 mm 2 mps 713 mmHg 80%
    20:00 +14°C° 0.5 mm 2 mps 713 mmHg 85%
    21:00 +14°C° 0.5 mm 2 mps 713 mmHg 90%
    22:00 +13°C° 0.5 mm 2 mps 713 mmHg 95%
    23:00 +12°C° 0.8 mm 3 mps 713 mmHg 94%

    24 September, Tuesday

    Time Temperature Precipitation Wind Pressure Humidity
    00:00 +12°C° 0.8 mm 3 mps 713 mmHg 93%
    01:00 +12°C° 0.8 mm 4 mps 713 mmHg 93%
    02:00 +11°C° 0 mm 3 mps 713 mmHg 93%
    03:00 +11°C° 0 mm 3 mps 713 mmHg 93%
    04:00 +10°C° 0 mm 2 mps 713 mmHg 93%
    05:00 +10°C° 0.1 mm 3 mps 713 mmHg 93%
    06:00 +11°C° 0.1 mm 3 mps 713 mmHg 92%
    07:00 +11°C° 0.1 mm 3 mps 713 mmHg 91%
    08:00 +11°C° 0.9 mm 3 mps 714 mmHg 90%
    09:00 +11°C° 0.9 mm 3 mps 714 mmHg 89%
    10:00 +11°C° 0.9 mm 4 mps 714 mmHg 88%
    11:00 +11°C° 0.9 mm 3 mps 714 mmHg 89%
    12:00 +11°C° 0.9 mm 3 mps 714 mmHg 89%
    13:00 +12°C° 0.9 mm 3 mps 714 mmHg 90%
    14:00 +12°C° 0.2 mm 3 mps 714 mmHg 88%
    15:00 +13°C° 0.2 mm 3 mps 714 mmHg 85%
    16:00 +14°C° 0.2 mm 3 mps 714 mmHg 83%
    17:00 +14°C° 0 mm 2 mps 714 mmHg 86%
    18:00 +12°C° 0 mm 2 mps 715 mmHg 88%
    19:00 +10°C° 0 mm 2 mps 715 mmHg 91%
    20:00 +10°C° 0 mm 2 mps 715 mmHg 92%
    21:00 +10°C° 0 mm 2 mps 715 mmHg 92%
    22:00 +10°C° 0 mm 2 mps 715 mmHg 92%
    23:00 +10°C° 0 mm 2 mps 715 mmHg 93%
    Show more